Regional Weather Roundup
Issued by NWS

Home | Current Version | Previous Version | Graphics & Text | Print | Product List | Glossary Off
Versions: 1 2 3 4 5 6 7 8 9 10 11 12 13 14 15 16 17 18 19 20 21 22 23 24 25 26 27 28 29 30 31 32 33 34 35 36 37 38 39 40 41 42 43 44 45 46 47 48 49 50

000
ASUS45 KTFX 161919
RWRMT
MONTANA HOURLY WEATHER ROUNDUP
NATIONAL WEATHER SERVICE GREAT FALLS MT
119 PM MDT WED APR 16 2014

NOTE: "FAIR" INDICATES FEW OR NO CLOUDS BELOW 12000 FEET WITH NO
SIGNIFICANT WEATHER AND/OR OBSTRUCTIONS TO VISIBILITY.

* THESE STATIONS ARE NOT UNDER NWS QUALITY CONTROL. THEY DO NOT
   REPORT WEATHER SUCH AS PRECIPITATION OR FOG.

MTZ001>007-043-162000-
WEST OF THE DIVIDE
CITY           SKY/WX    TMP DP  RH WIND       PRES   REMARKS
KALISPELL      CLOUDY    48  28  46 S9        29.96S
MISSOULA       CLOUDY    46  27  48 NW7       30.03S
BUTTE          CLOUDY    39  14  36 W8        29.98S WCI  33
MULLAN PASS    LGT SNOW  30  27  89 VRB5      29.97S VSB 3    WCI  25
* ESSEX        N/A       43  29  58 E2         N/A
* LINCOLN      N/A       40  27  60 SW5G10     N/A   WCI  36
* LOOKOUT PASS N/A       38  28  67 SE7        N/A   WCI  33
* PLAINS APT   CLOUDY    50  28  43 SW8       30.02S
* POLSON       N/A       47  25  42 W3G10      N/A
* SEELEY LAKE  N/A       42  31  65 SW3G8      N/A
* THOMP F APT  CLOUDY    45  12  26 E4G17      N/A
* YAAK HILL    N/A       53  26  35 SW4G9      N/A
$$

MTZ008-052>055-162000-
SOUTHWEST MONTANA
CITY           SKY/WX    TMP DP  RH WIND       PRES   REMARKS
BOZEMAN        CLOUDY    43  28  56 E14       29.98F
DILLON         CLOUDY    45  12  26 S9        29.97F
W YELLOWSTONE  N/A       42  14  32 SW4G10     N/A
* THREE FORKS  CLOUDY    48  19  32 SW11G21    N/A
* BOULDER HILL N/A       38  21  50 E3G8       N/A
* MONIDA PASS  N/A       37   8  30 NW10       N/A   WCI  30
* RAYNOLDS PAS N/A       41   2  19 N2         N/A
* WHITEHALL    N/A       49  18  29 SW8G16     N/A
* WISE RIVER   N/A       41  15  35 N5G15      N/A
$$

MTZ009>010-012-014-046-048-049-054-162000-
EAST SLOPES AND CENTRAL MONTANA
CITY           SKY/WX    TMP DP  RH WIND       PRES   REMARKS
CUT BANK       CLOUDY    30  28  92 NE9       30.00R WCI  22
GREAT FALLS    PTSUNNY   41  30  65 N7        29.97S
HELENA         CLOUDY    48  21  34 NW15      29.96S
MALMSTROM AFB  PTSUNNY   41  30  65 VRB6      29.96S
* CONRAD       PTSUNNY   37  34  89 SE6        N/A   WCI  32
* DEARBORN     N/A       46  28  50 VRB1       N/A
* EAST GLACIER N/A       28  24  85 E7         N/A   WCI  21
* MONARCH      N/A       38  26  62 NW4        N/A
* PENDROY      N/A       31  29  92 NW11       N/A   WCI  22
* ROGERS PASS  N/A       37  23  57 SE12G19    N/A   WCI  29
* SAINT MARY   N/A       43  34  71 N4G10      N/A
* SWEET GRASS  N/A       28  28 100 NE7        N/A   WCI  21
* WHITE SULPH  N/A       41  18  39 SW7G13     N/A
$$

MTZ011-013-016-021-035-040-045-047-050-051-162000-
NORTH CENTRAL MONTANA
CITY           SKY/WX    TMP DP  RH WIND       PRES   REMARKS
HAVRE          CLOUDY    41  28  60 E9        30.04S
LEWISTOWN      PTSUNNY   39  28  65 E6        29.97F WCI  35
* CHINOOK      PTCLDY    39  25  57 E7        30.06S WCI  34
* FORT BENTON  PTCLDY    43  32  65 E9        30.02F
* MALTA APT    PTCLDY    43  21  42 CALM      30.04S
* CHESTER      N/A       36  33  89 S1         N/A
* DENTON       N/A       40  33  76 NE5        N/A   WCI  36
* GEYSER       N/A       38  32  79 NW2G9      N/A
* JUDITH GAP   N/A       39  26  60 W11        N/A   WCI  32
* LOMA         N/A       39  31  73 E11G16     N/A   WCI  32
$$

MTZ017>020-022>027-061-062-162000-
NORTHEAST MONTANA
CITY           SKY/WX    TMP DP  RH WIND       PRES   REMARKS
GLASGOW        CLOUDY    36  21  54 SE9G20    30.10S WCI  29
GLENDIVE       CLOUDY    30  19  64 NE5       30.11R WCI  25
JORDAN         CLOUDY    36  21  54 NE7       30.07R WCI  30
SIDNEY         CLOUDY    30  19  64 E8        30.16R WCI  22
WOLF POINT     CLOUDY    34  19  54 NE10      30.14R WCI  26
* BEAVER HILL  N/A       28  19  69 NE4G9      N/A
* CIRCLE       N/A       30  23  75 NE8        N/A   WCI  22
* LINDSAY DVD  N/A       27  21  78 NE9G14     N/A   WCI  18
* NAVAJO       N/A       25  18  75 E12        N/A   WCI  14
* SACO         N/A       37  21  52 E9G14      N/A   WCI  30
$$

MTZ028>042-056>058-162000-
SOUTHCENTRAL AND SOUTHEAST MONTANA
CITY           SKY/WX    TMP DP  RH WIND       PRES   REMARKS
BAKER          PTSUNNY   37  21  52 E6        30.04R WCI  32
BILLINGS       PTSUNNY   43  30  60 E7        30.01R
LIVINGSTON     PTCLDY    48  23  37 W16G24    29.96S
MILES CITY     CLOUDY    37  25  62 N9        30.06R WCI  30
* LAUREL APT   PTCLDY    43  28  56 NE9        N/A
* ROUNDUP APT  PTCLDY    37  27  67 N6         N/A   WCI  32
* HYSHAM       N/A       36  23  59 NE6        N/A   WCI  31
* LAME DEER    N/A       35  25  67 NW4G9      N/A
* REED POINT   N/A       49  22  35 W19G26     N/A
* ROSCOE HILL  N/A       47  11  23 W4G12      N/A
$$

REGIONAL REPORTS...DAKOTAS
CITY           SKY/WX    TMP DP  RH WIND       PRES   REMARKS
WILLISTON      CLOUDY    27  21  78 E14       30.16R WCI  16
DICKINSON      CLOUDY    28  21  75 NE8       30.06R WCI  20
CROSBY         N/A       27  23  85 E16       30.21R WCI  15
TIOGA          CLOUDY    25  25 100 E15       30.18R WCI  13
WATFORD CITY   CLOUDY    27  19  72 E12       30.13R WCI  16
BISMARCK       CLOUDY    30  21  69 NE14      30.11R WCI  19
GRAND FORKS    SUNNY     39   9  29 NE16      30.10R WCI  30
FARGO          CLOUDY    34  23  64 E15G25    30.06S WCI  24
BUFFALO SD     SUNNY     39  23  53 NE16G21   29.95R WCI  30
RAPID CITY     PTSUNNY   45  28  51 N22G28    29.97R
$$

REGIONAL REPORTS...WYOMING/IDAHO/WASHINGTON
CITY           SKY/WX    TMP DP  RH WIND       PRES   REMARKS
GILLETTE       PTCLDY    46  28  50 NW14G25   29.96R
SHERIDAN       CLOUDY    43  30  60 N13       29.99S
CODY           PTSUNNY   45  18  34 SW10      29.96S
YELLOWSTONE LA PTSUNNY   30  16  56 VRB3      30.00S
SALMON         PTSUNNY   50  18  28 NE9       29.98F
MULLAN PASS    LGT SNOW  30  27  89 VRB5      29.97S VSB 3    WCI  25
SAND POINT     LGT RAIN  45  36  71 S8        30.03S
SPOKANE        LGT RAIN  45  39  80 SW10      30.03F
$$

REGIONAL REPORTS...ALBERTA
CITY           SKY/WX    TMP DP  RH WIND       PRES   REMARKS
CALGARY        LGT SNOW  30  25  82 SE9       29.99S VSB 2    WCI  22
LETHBRIDGE     CLOUDY    30  27  89 E8        30.04S WCI  22
MEDICINE HAT   PTSUNNY   39  27  62 CALM      30.08S
EDMONTON       PTSUNNY   30  21  69 SE13G21   30.09S WCI  20
WATERTON GATE  N/A       34  27  76 NE7        N/A   WCI  28
CARDSTON       N/A       36  28  73 SE6        N/A   WCI  31
MILK RIVER     N/A       30  27  89 NE7        N/A   WCI  23
$$

REGIONAL REPORTS...SASKATCHEWAN
CITY           SKY/WX    TMP DP  RH WIND       PRES   REMARKS
SWIFT CURRENT  LGT SNOW  27  23  85 SE14      30.11R WCI  16
MOOSE JAW      CLOUDY    27  16  63 SE16      30.22R WCI  15
REGINA         LGT SNOW  28  18  66 SE15G22   30.24R WCI  16
ASSINIBOIA     N/A       27  18  69 E12        N/A   WCI  16
CORONACH       N/A       27  19  72 E9         N/A   WCI  18

$$




USA.gov is the U.S. government's official web portal to all federal, state and local government web resources and services.